Location: Zagreb
(45.8000°N, 16.0000°E)
Time: 03:01:35
(UTC+01:00)

Courier 1B - Pass Details

Date: 10 October 2020
Orbit: 963 x 1209 km, 28.3° (Epoch: 25 October)

Event Time Altitude Azimuth Distance (km) Brightness Sun altitude
Rises 19:42:56 0° 229° (SW) 3,935 11.3 -15.5°
Reaches altitude 10° 19:46:35 10° 212° (SSW) 3,022 10.4 -16.1°
Maximum altitude 19:51:29 19° 171° (S) 2,475 9.4 -17.0°
Enters shadow 19:54:55 14° 140° (SE) 2,802 9.5 -17.6°
